This is the latest recevied weather packets stored in our database for station/object KJ7IVE-13. If no packets are shown the sender has not sent any weather packets the latest 10 day(s).
| Time | Temp. | Humidity | Pressure | Rain* | Wind** | Luminosity | Snow |
|---|---|---|---|---|---|---|---|
| 1777456654 | 3.89° C | 10% | 1021.4 hPa | 0 mm | - | 0 W/m² | - |
| 1777456046 | 3.89° C | 10% | 1021.2 hPa | 0 mm | - | 0 W/m² | - |
| 1777455743 | 3.89° C | 10% | 1021.2 hPa | 0 mm | - | 0 W/m² | - |
| 1777455440 | 3.89° C | 10% | 1021 hPa | 0 mm | - | 0 W/m² | - |
| 1777455136 | 3.89° C | 10% | 1020.9 hPa | 0 mm | - | 0 W/m² | - |
| 1777454833 | 3.89° C | 10% | 1021 hPa | 0 mm | - | 0 W/m² | - |
| 1777454529 | 3.89° C | 10% | 1021 hPa | 0 mm | - | 0 W/m² | - |
| 1777454225 | 4.44° C | 10% | 1021 hPa | 0 mm | - | 0 W/m² | - |
| 1777453922 | 4.44° C | 10% | 1021.1 hPa | 0 mm | - | 0 W/m² | - |
| 1777453619 | 4.44° C | 10% | 1021.2 hPa | 0 mm | - | 0 W/m² | - |
| 1777453316 | 5° C | 10% | 1021 hPa | 0 mm | - | 0 W/m² | - |
| 1777453013 | 4.44° C | 10% | 1021.4 hPa | 0 mm | - | 0 W/m² | - |
| 1777452710 | 4.44° C | 10% | 1021.1 hPa | 0 mm | - | 0 W/m² | - |
| 1777452406 | 5° C | 10% | 1021.2 hPa | 0 mm | - | 0 W/m² | - |
| 1777452103 | 4.44° C | 10% | 1021 hPa | 0 mm | - | 0 W/m² | - |
| 1777451798 | 5° C | 10% | 1021.1 hPa | 0 mm | - | 0 W/m² | - |
| 1777451494 | 5° C | 10% | 1021.4 hPa | 0 mm | - | 0 W/m² | - |
| 1777451189 | 5.56° C | 10% | 1021.7 hPa | 0 mm | - | 0 W/m² | - |
| 1777450886 | 5.56° C | 10% | 1021.5 hPa | 0 mm | - | 0 W/m² | - |
| 1777450581 | 5.56° C | 10% | 1021.5 hPa | 0 mm | - | 0 W/m² | - |
| 1777450277 | 7.22° C | 10% | 1021.6 hPa | 0 mm | - | 0 W/m² | - |
| 1777449974 | 7.22° C | 10% | 1021.8 hPa | 0 mm | - | 0 W/m² | - |
| 1777449671 | 6.67° C | 10% | 1021.7 hPa | 0 mm | - | 0 W/m² | - |
| 1777449062 | 6.67° C | 10% | 1021.7 hPa | 0 mm | - | 0 W/m² | - |
| 1777448455 | 7.22° C | 10% | 1021.9 hPa | 0 mm | - | 0 W/m² | - |
* Rain latest hour (hover to see other rain measurements)
** Current wind speed in m/s (hover to see current wind gust speed)